+ View the NASA Portal
+ Center for Near-Earth Object Studies
IMPORTANT:
The SSD Announcement email list is now available. Major changes are coming in the near future, including possible hostname and/or URL changes. To be notified of such changes, subscribe to this email list.
Please visit
this page
for more details.
Don't show this message again
JPL Small-Body Database Browser
Search:
[
help
]
382846 (2004 DK47)
Classification:
Main-belt Asteroid
SPK-ID:
2382846
[
Ephemeris
|
Orbit Diagram
|
Orbital Elements
|
Mission Design
|
Physical Parameters
|
Discovery Circumstances
|
Close-Approach Data
]
[ show orbit diagram ]
Orbital Elements at Epoch 2458600.5 (2019-Apr-27.0) TDB
Reference:
JPL 13
(heliocentric ecliptic J2000)
Element
Value
Uncertainty (1-sigma)
Units
e
.1796423208962072
4.3666e-08
a
2.324246046087388
1.8648e-08
au
q
1.906713092034416
1.0078e-07
au
i
5.18334690543993
5.232e-06
deg
node
196.8429136308474
8.3434e-05
deg
peri
3.192181415848773
8.5973e-05
deg
M
71.1127830023467
2.2175e-05
deg
t
p
2458344.837664188481
(2018-Aug-14.33766419)
7.8562e-05
TDB
period
1294.260145733708
3.54
1.5576e-05
4.264e-08
d
yr
n
.2781511902276171
3.3475e-09
deg/d
Q
2.741779000140359
2.1998e-08
au
Orbit Determination Parameters
# obs. used (total)
140
data-arc span
5675 days (15.54 yr)
first obs. used
2004-02-19
last obs. used
2019-09-03
planetary ephem.
DE431
SB-pert. ephem.
SB431-N16
condition code
0
norm. resid. RMS
.61487
source
ORB
producer
Otto Matic
solution date
2019-Sep-24 06:59:57
Additional Information
Earth MOID
= .904592 au
Jupiter MOID
= 2.21654 au
T_jup
= 3.548
[ show covariance matrix ]
[
Ephemeris
|
Orbit Diagram
|
Orbital Elements
|
Mission Design
|
Physical Parameters
|
Discovery Circumstances
|
Close-Approach Data
]
Physical Parameter Table
Parameter
Symbol
Value
Units
Sigma
Reference
Notes
absolute magnitude
H
17.6
n/a
MPO437567
382846 (2004 DK47)
Discovered 2004-Feb-19 by LINEAR at Socorro
Reference:
Last Updated:
2014-01-21
[ show close-approach data ]
Alternate Designations
2004 DK47
= 2011 BY56
[
Ephemeris
|
Orbit Diagram
|
Orbital Elements
|
Mission Design
|
Physical Parameters
|
Discovery Circumstances
|
Close-Approach Data
]
2019-Dec-12 13:52 UT
(server date/time)
Site Manager:
Ryan S. Park
Webmaster
:
Alan B. Chamberlin